Weather History for Winfield, KS

Change the Weather History Date:

Wednesday, August 21, 2013

  Actual Average Record
Temperature  
Mean Temperature 27 °C -  
Max Temperature 33 °C 32 °C 38 °C (2001)
Min Temperature 21 °C 19 °C 13 °C (2004)
Cooling Degree Days 15    
Growing Degree Days 30 (Base 50)    
Moisture  
Dew Point 19 °C    
Average Humidity 68    
Maximum Humidity 87    
Minimum Humidity 42    
Precipitation  
Precipitation 0.00 mm - - ()
Sea Level Pressure  
Sea Level Pressure 1016 hPa    
Wind  
Wind Speed 13 km/h (SSE)    
Max Wind Speed 23 km/h    
Max Gust Speed 32 km/h    
Visibility 16 kilometers    
Events      
Averages and records for this station are not official NWS values.
T = Trace of Precipitation, MM = Missing Value Source: NWS Daily Summary

Daily Weather History Graph

Daily Weather History Graph

Search for Another Location

Airport:

Trip Planner

Search our weather history database for the weather conditions in past years. The results will help you decide how hot, cold, wet, or windy it might be!

Date:

Astronomy

Aug. 21, 2013 Rise Set
Actual Time 6:49 AM CDT 8:11 PM CDT
Civil Twilight 6:22 AM CDT 8:39 PM CDT
Nautical Twilight 5:50 AM CDT 9:11 PM CDT
Astronomical Twilight 5:15 AM CDT 9:45 PM CDT
Moon 8:24 PM CDT (8/21) 7:29 AM CDT (8/21)
Length of Visible Light 14h 16m
Length of Day
13h 21m
Waxing Gibbous, 99% of the Moon is Illuminated
Aug 21
Waxing Gibbous
Aug 28
Last Quarter
Sep 5
New
Sep 12
First Quarter
Sep 19
Full

Hourly Weather History & Observations

Time (CDT) Temp. Heat Index Dew Point Humidity Pressure Visibility Wind Dir Wind Speed Gust Speed Precip Events Conditions
12:54 AM 22.8 °C - 19.4 °C 81% 1016.3 hPa 16.1 km SSE 14.8 km/h / 4.1 m/s - N/A   Clear
1:54 AM 22.2 °C - 19.4 °C 84% 1016.4 hPa 16.1 km SSE 11.1 km/h / 3.1 m/s - N/A   Clear
2:54 AM 21.7 °C - 18.9 °C 84% 1016.3 hPa 16.1 km SSE 11.1 km/h / 3.1 m/s - N/A   Clear
3:54 AM 21.7 °C - 18.9 °C 84% 1016.2 hPa 16.1 km SSE 11.1 km/h / 3.1 m/s - N/A   Clear
4:54 AM 21.1 °C - 18.3 °C 84% 1016.2 hPa 16.1 km SE 11.1 km/h / 3.1 m/s - N/A   Clear
5:54 AM 21.1 °C - 18.3 °C 84% 1016.3 hPa 16.1 km SE 13.0 km/h / 3.6 m/s - N/A   Clear
6:54 AM 20.6 °C - 18.3 °C 87% 1016.9 hPa 16.1 km SSE 7.4 km/h / 2.1 m/s - N/A   Clear
7:54 AM 21.7 °C - 18.9 °C 84% 1017.2 hPa 16.1 km SSE 11.1 km/h / 3.1 m/s - N/A   Clear
8:54 AM 23.9 °C - 18.9 °C 73% 1017.6 hPa 16.1 km South 13.0 km/h / 3.6 m/s - N/A   Clear
9:54 AM 25.6 °C - 18.9 °C 66% 1017.9 hPa 16.1 km South 13.0 km/h / 3.6 m/s - N/A   Clear
10:54 AM 28.3 °C 29.9 °C 20.0 °C 60% 1017.7 hPa 16.1 km South 14.8 km/h / 4.1 m/s - N/A   Clear
11:54 AM 29.4 °C 30.9 °C 19.4 °C 55% 1017.8 hPa 16.1 km SSW 13.0 km/h / 3.6 m/s - N/A   Clear
12:54 PM 30.6 °C 32.5 °C 20.0 °C 53% 1017.6 hPa 16.1 km SSW 18.5 km/h / 5.1 m/s - N/A   Clear
1:54 PM 31.7 °C 32.8 °C 18.3 °C 45% 1016.9 hPa 16.1 km SSW 18.5 km/h / 5.1 m/s 27.8 km/h / 7.7 m/s N/A   Clear
2:54 PM 32.8 °C 33.9 °C 18.3 °C 42% 1016.6 hPa 16.1 km SW 22.2 km/h / 6.2 m/s 31.5 km/h / 8.7 m/s N/A   Clear
3:54 PM 32.8 °C 33.9 °C 18.3 °C 42% 1016.3 hPa 16.1 km South 16.7 km/h / 4.6 m/s - N/A   Clear
4:54 PM 32.2 °C 33.6 °C 18.9 °C 45% 1016.0 hPa 16.1 km South 14.8 km/h / 4.1 m/s - N/A   Clear
5:54 PM 31.1 °C 32.6 °C 19.4 °C 49% 1015.8 hPa 16.1 km SSE 18.5 km/h / 5.1 m/s - N/A   Clear
6:54 PM 30.0 °C 31.9 °C 20.0 °C 55% 1015.8 hPa 16.1 km SSE 14.8 km/h / 4.1 m/s - N/A   Clear
7:54 PM 27.2 °C 28.9 °C 20.6 °C 67% 1015.9 hPa 16.1 km SE 7.4 km/h / 2.1 m/s - N/A   Clear
8:54 PM 25.0 °C - 20.6 °C 76% 1016.0 hPa 16.1 km SSE 9.3 km/h / 2.6 m/s - N/A   Clear
9:54 PM 23.9 °C - 20.0 °C 79% 1016.5 hPa 16.1 km SSE 9.3 km/h / 2.6 m/s - N/A   Clear
10:54 PM 23.3 °C - 20.0 °C 82% 1016.5 hPa 16.1 km SSE 11.1 km/h / 3.1 m/s - N/A   Clear
11:54 PM 23.9 °C - 20.0 °C 79% 1016.6 hPa 16.1 km SSE 14.8 km/h / 4.1 m/s - N/A   Clear